M I D A S
Marine Information and Data Acquisition System
Tripno 753 of the Zeeleeuw from 2004-07-29 09:05:46 to 2004-07-29 12:11:41
Back to CruiseResearch ActivitiesStationsMapUnderway DataData graphs

EquipmentUnitsComments
TimeDGPSUTC
LatitudeDGPSDM.mWGS84
LongitudeDGPSDM.mWGS84
SpeedMeteo Stationm/sRelative wind speed
DirectionMeteo StationdegRelative wind direction
TemperatureMeteo Stationdeg CelciusAir temperature
PressureMeteo StationPaAtmospheric pressure
HumidityMeteo Station%Relative humidity
Missing or incorrect values are displayed as -999
Metereological data collected by the RV Zeeleeuw from 2004-07-29 09:05:46 to 2004-07-29 12:11:41
Time Latitude Longitude Speed Direction Temperature Pressure Humidity
2004-07-29 09:06 51°10.944 2°26.914 4.5 356 18.9 101540 73
2004-07-29 09:07 51°10.921 2°26.608 3.9 18 18.9 101540 73
2004-07-29 09:08 51°11.015 2°26.32 5.2 33 18.9 101530 73
2004-07-29 09:09 51°11.199 2°26.122 7.2 31 18.8 101530 74
2004-07-29 09:10 51°11.413 2°26.1 8.5 30 18.8 101520 74
2004-07-29 09:11 51°11.65 2°26.103 8.9 31 18.7 101520 75
2004-07-29 09:12 51°11.884 2°26.102 8.9 31 18.6 101520 74
2004-07-29 09:13 51°12.118 2°26.104 9 34 18.5 101520 74
2004-07-29 09:14 51°12.355 2°26.107 9.1 34 18.4 101520 75
2004-07-29 09:15 51°12.597 2°26.171 9.3 32 18.3 101520 75
2004-07-29 09:16 51°12.834 2°26.239 9.4 32 18.3 101510 75
2004-07-29 09:17 51°13.068 2°26.306 9.5 34 18.3 101520 75
2004-07-29 09:18 51°13.306 2°26.374 9.6 29 18.3 101520 75
2004-07-29 09:19 51°13.527 2°26.538 10.7 21 18.5 101510 74
2004-07-29 09:20 51°13.729 2°26.777 10.7 20 18.6 101520 74
2004-07-29 09:21 51°13.911 2°27.035 4.4 22 18.8 101510 74
2004-07-29 09:22 51°14.098 2°27.3 10.3 23 18.9 101510 74
2004-07-29 09:23 51°14.281 2°27.566 10.7 20 18.9 101510 73
2004-07-29 09:24 51°14.466 2°27.831 10.4 20 19 101510 73
2004-07-29 09:25 51°14.649 2°28.098 10 17 19 101510 73
2004-07-29 09:26 51°14.833 2°28.361 10.4 16 19.1 101510 74
2004-07-29 09:27 51°15.017 2°28.625 10.7 18 19.1 101510 75
2004-07-29 09:28 51°15.198 2°28.89 10.9 20 19 101510 75
2004-07-29 09:29 51°15.379 2°29.152 10.5 18 19 101510 75
2004-07-29 09:30 51°15.56 2°29.415 10.6 17 19 101510 75
2004-07-29 09:31 51°15.739 2°29.672 10.4 18 19 101510 75
2004-07-29 09:32 51°15.927 2°29.934 11.1 19 19 101510 75
2004-07-29 09:33 51°16.107 2°30.198 10.2 18 19 101510 74
2004-07-29 09:34 51°16.287 2°30.453 10.3 18 19 101510 74
2004-07-29 09:35 51°16.473 2°30.719 10.2 20 19.1 101510 74
2004-07-29 09:36 51°16.657 2°30.975 10.6 20 19.1 101510 74
2004-07-29 09:37 51°16.841 2°31.233 10.7 18 19.2 101520 74
2004-07-29 09:38 51°17.023 2°31.487 10.5 17 19.2 101510 75
2004-07-29 09:39 51°17.208 2°31.752 10.6 17 19.1 101520 75
2004-07-29 09:40 51°17.38 2°32.029 10.3 17 19.1 101510 75
2004-07-29 09:41 51°17.566 2°32.286 10.9 15 19.1 101510 75
2004-07-29 09:42 51°17.75 2°32.544 10.6 14 19.2 101510 75
2004-07-29 09:43 51°17.935 2°32.801 10.5 19 19.2 101510 74
2004-07-29 09:44 51°18.118 2°33.059 10.4 16 19.2 101510 74
2004-07-29 09:45 51°18.302 2°33.316 10.8 18 19.2 101510 74
2004-07-29 09:46 51°18.484 2°33.57 10.6 19 19.2 101510 74
2004-07-29 09:47 51°18.669 2°33.828 10.9 21 19.3 101510 74
2004-07-29 09:48 51°18.851 2°34.091 11.3 21 19.3 101510 74
2004-07-29 09:49 51°19.031 2°34.36 10.6 21 19.4 101510 74
2004-07-29 09:50 51°19.208 2°34.633 10.9 22 19.4 101500 74
2004-07-29 09:51 51°19.384 2°34.908 10.9 24 19.4 101500 74
2004-07-29 09:52 51°19.539 2°35.212 11.1 18 19.4 101510 74
2004-07-29 09:53 51°19.665 2°35.552 10.7 10 19.4 101510 75
2004-07-29 09:54 51°19.775 2°35.904 11.1 10 19.3 101510 76
2004-07-29 09:55 51°19.886 2°36.254 11.3 9 19.3 101510 76
2004-07-29 09:56 51°19.995 2°36.606 11.6 12 19.3 101510 76
2004-07-29 09:57 51°20.101 2°36.96 10.8 11 19.3 101510 76
2004-07-29 09:58 51°20.215 2°37.338 11 12 19.3 101510 76
2004-07-29 09:59 51°20.322 2°37.686 11.3 8 19.3 101510 76
2004-07-29 10:00 51°20.431 2°38.048 10.6 10 19.3 101510 76
2004-07-29 10:01 51°20.525 2°38.409 11.5 11 19.3 101510 77
2004-07-29 10:02 51°20.617 2°38.752 11.1 8 19.3 101510 77
2004-07-29 10:04 51°20.724 2°39.153 11.6 8 19.3 101510 76
2004-07-29 10:05 51°20.822 2°39.509 11.6 8 19.4 101510 77
2004-07-29 10:06 51°20.919 2°39.864 11.2 12 19.4 101500 77
2004-07-29 10:07 51°21.059 2°40.191 12.1 12 19.5 101510 78
2004-07-29 10:08 51°21.235 2°40.457 10.4 29 19.4 101500 78
2004-07-29 10:09 51°21.469 2°40.494 9.8 41 19.4 101500 78
2004-07-29 10:10 51°21.716 2°40.49 10.1 39 19.2 101500 78
2004-07-29 10:11 51°21.958 2°40.483 9.4 36 19.1 101500 78
2004-07-29 10:12 51°22.2 2°40.474 9.4 38 19 101510 78
2004-07-29 10:13 51°22.442 2°40.471 9.6 37 19 101510 79
2004-07-29 10:14 51°22.681 2°40.468 9.4 34 19 101510 78
2004-07-29 10:15 51°22.927 2°40.463 9.3 37 19 101510 79
2004-07-29 10:16 51°23.17 2°40.464 9.2 36 19.1 101510 79
2004-07-29 10:17 51°23.412 2°40.478 10.3 33 19 101510 79
2004-07-29 10:18 51°23.634 2°40.649 10.9 23 19.1 101510 80
2004-07-29 10:19 51°23.841 2°40.866 10.7 23 19.3 101510 80
2004-07-29 10:20 51°24.064 2°41.07 11 24 19.3 101500 80
2004-07-29 10:21 51°24.282 2°41.274 10.9 23 19.3 101500 80
2004-07-29 10:22 51°24.501 2°41.483 10.8 26 19.3 101500 80
2004-07-29 10:23 51°24.718 2°41.688 11.3 29 19.3 101490 80
2004-07-29 10:24 51°24.935 2°41.891 10.9 29 19.3 101500 79
2004-07-29 10:25 51°25.145 2°42.107 10.9 23 19.3 101500 79
2004-07-29 10:26 51°25.35 2°42.319 11.3 23 19.4 101500 80
2004-07-29 10:27 51°25.565 2°42.531 9.8 20 19.4 101490 79
2004-07-29 10:28 51°25.788 2°42.755 10.7 24 19.4 101500 80
2004-07-29 10:29 51°26.001 2°42.967 10.4 20 19.3 101500 80
2004-07-29 10:30 51°26.217 2°43.191 10.6 27 19.4 101500 80
2004-07-29 10:31 51°26.415 2°43.389 10.5 26 19.3 101500 80
2004-07-29 10:32 51°26.625 2°43.598 10.7 26 19.3 101500 80
2004-07-29 10:33 51°26.828 2°43.802 10.2 28 19.4 101500 80
2004-07-29 10:34 51°27.04 2°44.015 10.5   19.4 101500 80
2004-07-29 10:35 51°27.243 2°44.219 10.4 27 19.4 101510 80
2004-07-29 10:36 51°27.414 2°44.512 11.1 16 19.4 101500 80
2004-07-29 10:37 51°27.483 2°44.88 11.7 4 19.4 101500 80
2004-07-29 10:38 51°27.492 2°45.262 11.9 357 19.4 101510 80
2004-07-29 10:39 51°27.444 2°45.623 11.2   19.5 101510 80
2004-07-29 10:40 51°27.397 2°45.985 11.3 355 19.5 101500 80
2004-07-29 10:41 51°27.347 2°46.365 11.2 357 19.6 101500 80
2004-07-29 10:42 51°27.302 2°46.713 12.5 355 19.6 101500 80
2004-07-29 10:43 51°27.252 2°47.082 11.7 353 19.6 101500 80
2004-07-29 10:44 51°27.202 2°47.459 12.4 356 19.6 101500 80
2004-07-29 10:45 51°27.158 2°47.829 11.9 356 19.7 101500 79
2004-07-29 10:46 51°27.112 2°48.186 12.7 356 19.7 101510 79
2004-07-29 10:47 51°27.067 2°48.561 12.1 357 19.8 101490 79
2004-07-29 10:48 51°27.02 2°48.924 12 359 19.8 101490 78
2004-07-29 10:49 51°26.974 2°49.3 12.7 357 19.9 101500 78
2004-07-29 10:50 51°26.897 2°49.641 11 343 19.9 101500 78
2004-07-29 10:51 51°26.732 2°49.864 10 331 20 101500 77
2004-07-29 10:52 51°26.558 2°50.025 9.7 327 20 101500 77
2004-07-29 10:53 51°26.358 2°50.166 10.4 326 20 101490 77
2004-07-29 10:54 51°26.165 2°50.278 9.6 325 19.9 101490 77
2004-07-29 10:55 51°25.967 2°50.376 9.5 323 19.9 101490 78
2004-07-29 10:56 51°25.763 2°50.475 9.9 324 19.9 101490 78
2004-07-29 10:57 51°25.56 2°50.576 9.8 326 19.8 101490 78
2004-07-29 10:58 51°25.355 2°50.677 9.5 324 19.8 101490 79
2004-07-29 10:59 51°25.152 2°50.773 9.8 322 19.8 101480 79
2004-07-29 11:00 51°24.946 2°50.87 9.6 324 19.8 101480 79
2004-07-29 11:01 51°24.751 2°50.966 9.4 321 19.8 101480 79
2004-07-29 11:02 51°24.547 2°51.068 9.7 322 19.8 101480 79
2004-07-29 11:03 51°24.351 2°51.165 9.2 321 19.8 101470 79
2004-07-29 11:04 51°24.15 2°51.252 9.6 319 19.8 101470 78
2004-07-29 11:05 51°23.945 2°51.349 9.9 320 19.9 101470 78
2004-07-29 11:06 51°23.747 2°51.437 9.1 316 20 101470 78
2004-07-29 11:07 51°23.542 2°51.526 8.7   20 101480 79
2004-07-29 11:08 51°23.346 2°51.62 8.4 315 20 101480 79
2004-07-29 11:09 51°23.146 2°51.72 7.9 317 20 101480 79
2004-07-29 11:10 51°22.952 2°51.805 8.4 316 20 101480 80
2004-07-29 11:11 51°22.755 2°51.894 8.3 42 20 101470 80
2004-07-29 11:12 51°22.553 2°51.956 7.7 41 20 101480 80
2004-07-29 11:13 51°22.351 2°51.976 6.7   20 101480 80
2004-07-29 11:14 51°22.145 2°51.999 7.3 232 20 101480 80
2004-07-29 11:15 51°21.939 2°52.024 7.4 315 20.1 101470 81
2004-07-29 11:16 51°21.736 2°52.041 7.8 317 20.1 101480 81
2004-07-29 11:17 51°21.508 2°52.062 8.1 313 20.1 101470 81
2004-07-29 11:18 51°21.301 2°52.078 8.1 312 20.1 101480 81
2004-07-29 11:19 51°21.093 2°52.097 7.9 314 20.2 101480 81
2004-07-29 11:20 51°20.885 2°52.106 6.9 315 20.2 101480 81
2004-07-29 11:21 51°20.675 2°52.116 6.9 317 20.2 101480 80
2004-07-29 11:22 51°20.463 2°52.124 6.6 320 20.2 101480 80
2004-07-29 11:23 51°20.252 2°52.124 6.9 43 20.2 101480 79
2004-07-29 11:24 51°20.04 2°52.135 6.7 313 20.3 101480 79
2004-07-29 11:25 51°19.828 2°52.142 6.7 315 20.3 101480 79
2004-07-29 11:26 51°19.616 2°52.151 6.8 315 20.3 101470 79
2004-07-29 11:27 51°19.405 2°52.169 6.4 43 20.3 101470 79
2004-07-29 11:28 51°19.197 2°52.189 6.4 41 20.3 101470 80
2004-07-29 11:29 51°18.989 2°52.211 6.1 318 20.3 101470 80
2004-07-29 11:30 51°18.778 2°52.237 5.6 42 20.3 101470 80
2004-07-29 11:31 51°18.566 2°52.257 6 316 20.3 101480 80
2004-07-29 11:32 51°18.354 2°52.284 5.5 41 20.4 101480 80
2004-07-29 11:33 51°18.143 2°52.303 5.2 318 20.4 101470 80
2004-07-29 11:34 51°17.934 2°52.318 5 42 20.4 101470 80
2004-07-29 11:35 51°17.725 2°52.331 5.8 43 20.5 101470 79
2004-07-29 11:36 51°17.515 2°52.35 4.8 316 20.5 101470 79
2004-07-29 11:37 51°17.306 2°52.37 5.9 229 20.6 101470 78
2004-07-29 11:38 51°17.099 2°52.445 7.9 318 20.6 101460 78
2004-07-29 11:39 51°16.897 2°52.56 7.6 317 20.7 101460 77
2004-07-29 11:40 51°16.693 2°52.668 8.6 226 20.8 101450 76
2004-07-29 11:41 51°16.488 2°52.768 8.1 228 20.8 101460 75
2004-07-29 11:42 51°16.282 2°52.863 8.5 314 20.9 101450 75
2004-07-29 11:43 51°16.075 2°52.957 8.1 226 21 101450 74
2004-07-29 11:44 51°15.866 2°53.05 8.7 315 21 101450 74
2004-07-29 11:45 51°15.665 2°53.187 8.9 42 21.1 101440 72
2004-07-29 11:46 51°15.468 2°53.338 9.3 315 21.1 101440 71
2004-07-29 11:47 51°15.27 2°53.491 9.9 226 21.2 101440 71
2004-07-29 11:48 51°15.127 2°53.571 3 255 21.2 101450 72
2004-07-29 11:49 51°15.061 2°53.537 3.7 203 21.2 101450 72
2004-07-29 11:50 51°15.032 2°53.489 3.9 173 21.2 101450 72
2004-07-29 11:51 51°15.005 2°53.447 4.8 238 21.5 101450 71
2004-07-29 11:52 51°14.936 2°53.532 8.8 321 21.4 101440 72
2004-07-29 11:53 51°14.838 2°53.784 9.5 326 21.3 101430 70
2004-07-29 11:54 51°14.729 2°54.065 9.8 329 21.4 101430 71
2004-07-29 11:55 51°14.617 2°54.344 10.9 323 21.3 101420 71
2004-07-29 11:56 51°14.507 2°54.629 11.4 325 21.3 101420 72
2004-07-29 11:57 51°14.406 2°54.922 10.2 326 21.3 101420 72
2004-07-29 11:58 51°14.299 2°55.182 9.9 333 21.3 101430 71
2004-07-29 11:59 51°14.192 2°55.349 6.3 306 21.3 101440 73
2004-07-29 12:00 51°14.076 2°55.445 4.7 301 21.4 101450 71
2004-07-29 12:01 51°13.957 2°55.534 5.6 295 21.6 101440 68
2004-07-29 12:02 51°13.838 2°55.627 3.7 291 21.9 101450 64
2004-07-29 12:03 51°13.733 2°55.733 6 343 22.3 101440 58
2004-07-29 12:04 51°13.68 2°55.848 4.5 298 22.8 101440 53
2004-07-29 12:05 51°13.644 2°55.943 4.2 282 23.3 101440 51
2004-07-29 12:06 51°13.616 2°56.026 1.4 280 23.7 101440 50
2004-07-29 12:07 51°13.604 2°56.073 2.5 288 24.1 101440 49
2004-07-29 12:08 51°13.596 2°56.095 2.2 284 24.5 101440 46
2004-07-29 12:09 51°13.595 2°56.097 4.4 254 24.9 101440 45
2004-07-29 12:10 51°13.596 2°56.097 4.1 271 25.1 101440 44
2004-07-29 12:11 51°13.597 2°56.098 3.3 243 25.2 101440 43